User: anonymous   Login
Location: Godiavel Galaoual
(15.2485°N, 12.6604°W)
Time: 03:00:33
(UTC+00:00)
Language:

METEOR M2 - Orbit

View from above orbital plane
View from above orbital plane
View from above satellite
View from above satellite

Ground track
Ground track

The orbit data is extracted from the following two-line orbital elements,

1 40069U 14037A   21216.81966452 -.00000028  00000-0  60682-5 0  9995
2 40069  98.4581 243.6549 0006138 150.3602 209.7920 14.20686183366906
Epoch (UTC): 04 August 2021 19:40:19
Eccentricity: 0.0006138
inclination: 98.4581°
perigee height: 818 km
apogee height: 827 km
right ascension of ascending node: 243.6549°
argument of perigee: 150.3602°
revolutions per day: 14.20686183
mean anomaly at epoch: 209.7920°
orbit number at epoch: 36690

The dashed part of the orbit path shows where the satellite is in the earth's shadow,  

DLR